FW0019 Weather Reports


time (UTC)temp
F
wind
direction
speed
knots
gust
knots
rain 1hr
in
rain 24hr
in
rain mn
in
humidity
%
barometer
mb
20260506073059 40 125 7.8 13.9 0.00 0.66 0.00 97 878.7
20260506071620 40 121 7.0 13.0 0.00 0.66 0.00 97 878.8
20260506061552 39 159 6.1 11.3 0.00 0.66 0.66 96 878.4
20260506044556 40 109 6.1 12.2 0.00 0.66 0.66 97 878.2
20260506043053 40 112 6.1 12.2 0.00 0.66 0.66 96 878.0
20260506041547 40 109 5.2 11.3 0.00 0.66 0.66 96 878.0
20260506040049 40 116 3.5 9.6 0.00 0.67 0.66 96 877.9
20260506034541 40 123 5.2 11.3 0.00 0.67 0.66 96 877.4
20260506033039 41 128 7.0 14.8 0.00 0.67 0.66 96 877.3
20260506031539 41 149 7.8 13.9 0.00 0.67 0.66 95 877.1
20260506030037 41 79 7.0 14.8 0.00 0.67 0.66 95 876.9
20260506024543 41 105 6.1 13.9 0.00 0.67 0.66 94 876.7
20260506023035 42 124 7.0 14.8 0.00 0.67 0.66 94 876.7
20260506021549 42 138 7.0 14.8 0.00 0.67 0.66 91 876.5
20260506020034 42 101 7.8 13.0 0.00 0.67 0.66 90 876.6
20260506014534 42 134 7.0 13.9 0.00 0.67 0.66 88 876.4
20260506013033 43 102 7.0 13.9 0.00 0.67 0.66 88 876.3
20260506011533 43 110 7.0 14.8 0.00 0.67 0.66 84 876.4
20260506010044 43 165 7.8 18.2 0.00 0.67 0.66 84 876.1
20260506004530 43 100 7.0 15.6 0.00 0.67 0.66 85 876.0
20260506003028 43 116 10.4 16.5 0.00 0.67 0.66 86 875.8
20260506001525 44 87 8.7 18.2 0.00 0.67 0.66 85 875.7
20260506000024 44 139 10.4 20.9 0.00 0.67 0.66 83 875.7
20260505234523 44 146 12.2 18.2 0.00 0.67 0.66 83 875.5
20260505233022 45 105 13.9 22.6 0.00 0.67 0.66 78 875.5
20260505231527 44 111 11.3 20.0 0.00 0.67 0.66 83 875.7
20260505230023 45 111 10.4 20.0 0.00 0.67 0.66 84 875.7
20260505224527 45 145 13.0 22.6 0.00 0.67 0.66 83 875.6
20260505223020 45 152 10.4 21.7 0.00 0.67 0.66 85 875.8
20260505221520 47 102 10.4 19.1 0.00 0.67 0.66 82 876.0
20260505220017 46 148 12.2 22.6 0.00 0.67 0.66 85 876.1
20260505214515 45 134 11.3 20.0 0.00 0.67 0.66 90 876.1
20260505213012 44 155 7.8 18.2 0.00 0.67 0.66 95 876.3
20260505211525 43 156 11.3 20.0 0.00 0.67 0.66 97 876.5
20260505210011 42 161 10.4 23.5 0.00 0.67 0.66 97 876.6
20260505204508 43 144 11.3 19.1 0.01 0.67 0.66 98 876.5
20260505203006 42 146 10.4 20.0 0.01 0.67 0.66 98 876.5
20260505201507 40 109 8.7 18.2 0.01 0.67 0.66 98 876.6
20260505200005 40 114 10.4 18.2 0.02 0.67 0.66 98 876.7
20260505194507 41 96 7.8 13.9 0.01 0.66 0.65 98 876.6
20260505193003 40 111 9.6 14.8 0.04 0.66 0.65 98 876.8
20260505191503 41 157 7.8 19.1 0.06 0.66 0.65 98 876.9
20260505190005 41 125 7.8 14.8 0.06 0.65 0.64 98 876.7
20260505184501 41 113 7.0 16.5 0.07 0.65 0.64 98 876.7
20260505183105 41 137 8.7 14.8 0.06 0.62 0.61 98 876.6
20260505181559 40 101 8.7 18.2 0.07 0.60 0.59 98 876.5
20260505180104 40 78 8.7 13.9 0.08 0.59 0.57 98 876.6
20260505174556 41 117 10.4 20.9 0.08 0.57 0.56 97 876.3
20260505173053 41 143 10.4 20.9 0.07 0.56 0.55 98 876.1
20260505171556 41 126 7.0 19.1 0.05 0.53 0.52 98 875.9
20260505170051 41 123 7.0 15.6 0.05 0.52 0.50 98 875.7
20260505164550 41 101 6.1 14.8 0.07 0.51 0.49 98 875.6
20260505163048 41 145 8.7 15.6 0.06 0.50 0.48 98 875.5
20260505161547 41 127 9.6 18.2 0.05 0.49 0.47 98 875.3
20260505153050 41 124 9.6 21.7 0.02 0.44 0.42 98 875.1
20260505151546 41 138 10.4 20.9 0.06 0.44 0.42 97 875.0
20260505124535 42 123 10.4 18.2 0.10 0.27 0.25 97 874.0
20260505123033 42 115 7.0 17.4 0.06 0.22 0.20 97 874.1
20260505121537 42 138 13.0 20.9 0.05 0.21 0.19 97 873.9
20260505120031 42 107 7.8 15.6 0.02 0.17 0.15 97 873.9
20260505114529 42 98 8.7 20.9 0.03 0.17 0.15 97 874.0
20260505113038 42 165 10.4 20.0 0.03 0.16 0.14 97 873.9
20260505111540 42 162 10.4 26.9 0.05 0.16 0.14 97 874.0
20260505101532 41 58 7.8 20.9 0.07 0.11 0.09 97 874.1
20260505100020 41 5 3.5 13.0 0.06 0.09 0.07 97 874.1
20260505094521 41 134 7.0 13.9 0.06 0.08 0.06 97 874.3
20260505093017 41 104 7.0 13.9 0.04 0.06 0.04 97 874.3
20260505091516 40 96 3.5 12.2 0.02 0.04 0.02 97 874.6
20260505090017 39 130 5.2 11.3 0.01 0.03 0.01 97 874.7
20260505084525 39 136 7.0 13.9 0.00 0.02 0.00 97 874.7
20260505083011 40 100 7.0 13.9 0.00 0.02 0.00 97 874.8
20260505081510 40 144 6.1 15.6 0.00 0.02 0.00 97 875.0